Tiempo cada hora Dabie

Hoy, 2 Agosto, Lunes

Tiempo Temperatura Precipitaciones Viento Presión Humedad
00:00 +16°C° 0 mm 2 mps 747 mmHg 88%
01:00 +15°C° 0 mm 2 mps 747 mmHg 88%
02:00 +14°C° 0 mm 3 mps 747 mmHg 90%
03:00 +13°C° 0 mm 3 mps 747 mmHg 93%
04:00 +13°C° 0 mm 3 mps 747 mmHg 95%
05:00 +14°C° 0 mm 3 mps 747 mmHg 90%
06:00 +15°C° 0 mm 4 mps 747 mmHg 86%
07:00 +17°C° 0 mm 4 mps 747 mmHg 81%
08:00 +17°C° 0 mm 5 mps 748 mmHg 72%
09:00 +19°C° 0 mm 5 mps 748 mmHg 64%
10:00 +21°C° 0 mm 6 mps 748 mmHg 55%
11:00 +21°C° 0 mm 6 mps 748 mmHg 51%
12:00 +22°C° 0 mm 6 mps 748 mmHg 46%
13:00 +22°C° 0 mm 6 mps 749 mmHg 41%
14:00 +23°C° 0 mm 7 mps 749 mmHg 39%
15:00 +23°C° 0 mm 7 mps 749 mmHg 37%
16:00 +23°C° 0 mm 7 mps 749 mmHg 36%
17:00 +22°C° 0 mm 6 mps 749 mmHg 41%
18:00 +20°C° 0 mm 5 mps 749 mmHg 46%
19:00 +19°C° 0 mm 4 mps 749 mmHg 51%
20:00 +18°C° 0 mm 4 mps 750 mmHg 54%
21:00 +17°C° 0 mm 3 mps 750 mmHg 57%
22:00 +17°C° 0 mm 3 mps 750 mmHg 59%
23:00 +16°C° 0 mm 3 mps 751 mmHg 64%

Mañana, 3 Agosto, Martes

Tiempo Temperatura Precipitaciones Viento Presión Humedad
00:00 +14°C° 0 mm 3 mps 751 mmHg 69%
01:00 +13°C° 0 mm 3 mps 751 mmHg 74%
02:00 +12°C° 0 mm 3 mps 751 mmHg 77%
03:00 +12°C° 0 mm 3 mps 751 mmHg 81%
04:00 +11°C° 0 mm 3 mps 751 mmHg 84%
05:00 +13°C° 0 mm 4 mps 752 mmHg 81%
06:00 +14°C° 0 mm 4 mps 752 mmHg 78%
07:00 +16°C° 0 mm 5 mps 752 mmHg 75%
08:00 +17°C° 0.1 mm 5 mps 752 mmHg 67%
09:00 +20°C° 0.1 mm 5 mps 752 mmHg 58%
10:00 +22°C° 0.1 mm 5 mps 752 mmHg 50%
11:00 +22°C° 0 mm 5 mps 752 mmHg 46%
12:00 +23°C° 0 mm 5 mps 752 mmHg 41%
13:00 +25°C° 0 mm 5 mps 752 mmHg 36%
14:00 +23°C° 0 mm 4 mps 752 mmHg 38%
15:00 +24°C° 0 mm 3 mps 752 mmHg 40%
16:00 +22°C° 0 mm 3 mps 752 mmHg 42%
17:00 +21°C° 0 mm 2 mps 752 mmHg 45%
18:00 +20°C° 0 mm 2 mps 752 mmHg 48%
19:00 +20°C° 0 mm 1 mps 752 mmHg 52%
20:00 +20°C° 0 mm 1 mps 752 mmHg 53%
21:00 +19°C° 0 mm 1 mps 752 mmHg 55%
22:00 +18°C° 0 mm 1 mps 753 mmHg 57%
23:00 +18°C° 0 mm 1 mps 753 mmHg 58%

Pasado mañana, 4 Agosto, Miércoles

Tiempo Temperatura Precipitaciones Viento Presión Humedad
00:00 +18°C° 0 mm 1 mps 753 mmHg 58%
01:00 +18°C° 0 mm 1 mps 753 mmHg 59%
02:00 +18°C° 0 mm 1 mps 753 mmHg 60%
03:00 +16°C° 0 mm 1 mps 753 mmHg 62%
04:00 +16°C° 0 mm 1 mps 752 mmHg 63%
05:00 +18°C° 0 mm 1 mps 753 mmHg 61%
06:00 +19°C° 0 mm 1 mps 753 mmHg 59%
07:00 +20°C° 0 mm 1 mps 753 mmHg 56%
08:00 +20°C° 0 mm 2 mps 753 mmHg 53%
09:00 +23°C° 0 mm 2 mps 753 mmHg 49%
10:00 +24°C° 0 mm 2 mps 753 mmHg 45%
11:00 +24°C° 0.1 mm 2 mps 752 mmHg 46%
12:00 +25°C° 0.1 mm 2 mps 752 mmHg 46%
13:00 +25°C° 0.1 mm 2 mps 752 mmHg 46%
14:00 +25°C° 0.2 mm 2 mps 752 mmHg 50%
15:00 +24°C° 0.2 mm 2 mps 752 mmHg 53%
16:00 +24°C° 0.2 mm 2 mps 752 mmHg 56%
17:00 +23°C° 0.2 mm 2 mps 752 mmHg 61%
18:00 +21°C° 0.2 mm 2 mps 752 mmHg 66%
19:00 +20°C° 0.2 mm 2 mps 752 mmHg 72%
20:00 +19°C° 0.2 mm 2 mps 752 mmHg 76%
21:00 +18°C° 0.2 mm 2 mps 752 mmHg 81%
22:00 +17°C° 0.2 mm 2 mps 752 mmHg 85%
23:00 +17°C° 0.1 mm 2 mps 752 mmHg 87%

5 Agosto, Jueves

Tiempo Temperatura Precipitaciones Viento Presión Humedad
00:00 +17°C° 0.1 mm 2 mps 752 mmHg 88%
01:00 +18°C° 0.1 mm 1 mps 752 mmHg 89%
02:00 +16°C° 0 mm 1 mps 752 mmHg 90%
03:00 +16°C° 0 mm 1 mps 751 mmHg 91%
04:00 +16°C° 0 mm 1 mps 751 mmHg 93%
05:00 +18°C° 0 mm 1 mps 751 mmHg 89%
06:00 +18°C° 0 mm 2 mps 751 mmHg 85%
07:00 +18°C° 0 mm 2 mps 751 mmHg 80%
08:00 +19°C° 0.1 mm 2 mps 751 mmHg 79%
09:00 +19°C° 0.1 mm 2 mps 751 mmHg 77%
10:00 +20°C° 0.1 mm 3 mps 751 mmHg 75%
11:00 +19°C° 0.1 mm 2 mps 751 mmHg 77%
12:00 +19°C° 0.1 mm 2 mps 751 mmHg 79%
13:00 +20°C° 0.1 mm 1 mps 750 mmHg 80%
14:00 +19°C° 0.3 mm 2 mps 750 mmHg 80%
15:00 +19°C° 0.3 mm 2 mps 750 mmHg 79%
16:00 +19°C° 0.3 mm 2 mps 749 mmHg 78%
17:00 +19°C° 0.6 mm 2 mps 749 mmHg 83%
18:00 +18°C° 0.6 mm 2 mps 749 mmHg 88%
19:00 +17°C° 0.6 mm 3 mps 748 mmHg 94%
20:00 +17°C° 0.6 mm 3 mps 748 mmHg 94%
21:00 +17°C° 0.6 mm 3 mps 747 mmHg 95%
22:00 +17°C° 0.6 mm 4 mps 747 mmHg 96%
23:00 +17°C° 1.3 mm 4 mps 746 mmHg 96%

6 Agosto, Viernes

Tiempo Temperatura Precipitaciones Viento Presión Humedad
00:00 +17°C° 1.3 mm 4 mps 745 mmHg 96%
01:00 +17°C° 1.3 mm 4 mps 745 mmHg 96%
02:00 +16°C° 2.1 mm 5 mps 744 mmHg 96%
03:00 +16°C° 2.1 mm 5 mps 744 mmHg 97%
04:00 +16°C° 2.1 mm 5 mps 743 mmHg 97%
05:00 +16°C° 2.8 mm 5 mps 743 mmHg 97%
06:00 +16°C° 2.8 mm 5 mps 742 mmHg 97%
07:00 +16°C° 2.8 mm 5 mps 742 mmHg 97%
08:00 +16°C° 1.6 mm 5 mps 742 mmHg 97%
09:00 +16°C° 1.6 mm 5 mps 742 mmHg 96%
10:00 +16°C° 1.6 mm 5 mps 742 mmHg 96%
11:00 +16°C° 1.1 mm 6 mps 743 mmHg 95%
12:00 +16°C° 1.1 mm 6 mps 743 mmHg 95%
13:00 +16°C° 1.1 mm 6 mps 743 mmHg 94%
14:00 +16°C° 0.8 mm 6 mps 743 mmHg 93%
15:00 +16°C° 0.8 mm 6 mps 744 mmHg 93%
16:00 +16°C° 0.8 mm 6 mps 744 mmHg 92%
17:00 +16°C° 0.1 mm 5 mps 744 mmHg 91%
18:00 +17°C° 0.1 mm 4 mps 745 mmHg 90%
19:00 +17°C° 0.1 mm 4 mps 745 mmHg 89%
20:00 +17°C° 0 mm 3 mps 745 mmHg 90%
21:00 +16°C° 0 mm 3 mps 746 mmHg 90%
22:00 +14°C° 0 mm 3 mps 746 mmHg 91%
23:00 +14°C° 0 mm 3 mps 746 mmHg 91%

7 Agosto, Sábado

Tiempo Temperatura Precipitaciones Viento Presión Humedad
00:00 +14°C° 0 mm 3 mps 746 mmHg 92%
01:00 +14°C° 0 mm 3 mps 747 mmHg 92%
02:00 +14°C° 0 mm 3 mps 747 mmHg 92%
03:00 +15°C° 0 mm 2 mps 747 mmHg 92%
04:00 +15°C° 0 mm 2 mps 747 mmHg 92%
05:00 +16°C° 0 mm 3 mps 748 mmHg 89%
06:00 +17°C° 0 mm 3 mps 748 mmHg 86%
07:00 +18°C° 0 mm 3 mps 748 mmHg 83%
08:00 +20°C° 0 mm 4 mps 748 mmHg 76%
09:00 +22°C° 0 mm 4 mps 749 mmHg 68%
10:00 +23°C° 0 mm 4 mps 749 mmHg 60%
11:00 +25°C° 0 mm 4 mps 749 mmHg 56%
12:00 +26°C° 0 mm 4 mps 749 mmHg 52%
13:00 +27°C° 0 mm 4 mps 749 mmHg 48%
14:00 +26°C° 0 mm 4 mps 749 mmHg 51%
15:00 +26°C° 0 mm 3 mps 749 mmHg 55%
16:00 +25°C° 0 mm 2 mps 749 mmHg 58%
17:00 +25°C° 0 mm 2 mps 749 mmHg 61%
18:00 +24°C° 0 mm 3 mps 749 mmHg 63%
19:00 +22°C° 0 mm 3 mps 750 mmHg 65%
20:00 +22°C° 0 mm 3 mps 750 mmHg 67%
21:00 +21°C° 0 mm 3 mps 750 mmHg 69%
22:00 +20°C° 0 mm 3 mps 750 mmHg 71%
23:00 +20°C° 0 mm 3 mps 750 mmHg 71%
Mostrar más

Necesitamos Su Consentimiento

Meteoprog y nuestros Proveedores de Servicios pueden almacenar y acceder a sus datos personales como cookies, identificadores de dispositivo u otras tecnologías similares de su dispositivo y procesar dichos datos para personalizar contenido y anuncios, además de ofrecer funciones de redes sociales y analizar el tráfico.

  • Almacenar y/o acceder a información en su dispositivo

    Se puede almacenar o acceder a cookies, identificadores de dispositivo u otra información de su dispositivo para los fines anteriormente indicados.

  • Anuncios y contenido personalizados, medición de anuncios y contenido, percepciones del público, y desarrollo de productos

    Los anuncios y el contenido pueden personalizarse en base a su perfil. Se pueden añadir más datos para personalizar mejor los anuncios y contenidos. Se puede medir el rendimiento de los anuncios y contenidos. Se puede obtener la percepción sobre el público que ha visto los anuncios y contenidos. Dichos datos pueden usarse para desarrollar o mejorar la experiencia del usuario, sistemas y software.

Al hacer clic en ‘Estoy De Acuerdo’ usted permitirá el uso de las cookies, identificadores de dispositivo, balizas web u otras tecnologías similares indicadas. Su configuración puede cambiarse desde el navegador de su dispositivo.

Para ciertos fines, los intereses legítimos pueden ser considerados por encima del consentimiento. Puede leer más sobre ello en nuestra Política de Privacidad y Cookies.